ヘリン-ローマン-アルー第1彗星

117P/Helin-Roman-Alu 1 (2022)

English version
Home page
Updated on October 22, 2022

---------------------------------------------------------------------

・ プロフィール

・ 写真集

・ 軌道要素

Epoch 2022 Aug. 9.0 TT = JDT 2459800.5
T 2022 July 7.84491 TT                                  Rudenko
q   3.0396153            (2000.0)            P               Q
n   0.11947837     Peri.  222.95521     +0.19772689     +0.97166562
a   4.0826598      Node    58.84165     -0.85335930     +0.23562993
e   0.2554816      Incl.    8.70400     -0.48237121     -0.01855950
P   8.25
From 3736 observations 2010 Nov. 3-2022 June 4, mean residual 0".6.
     Nongravitational parameters A1 = +0.00, A2 = -0.0139.

・ 星図

・ 光度変化

        m1 = 3.0 + 5 logΔ + 18.0 log r

---------------------------------------------------------------------

軌道要素はM.P.E.C. 2022-L66に掲載されたものです。
星図はステラナビゲータ Ver.10 (アストロアーツ) で作成したものです。
光度グラフはComet for Windowsで作成したものです。

---------------------------------------------------------------------

Copyright(C) Seiichi Yoshida (comet@aerith.net). All rights reserved.